{"data":{"norad_id":64513,"epoch":"2026-09-21T21:24:39.667392Z","epoch_age_seconds":61394,"freshness":"FRESH","line1":"1 64513U 25134P   26264.89212578  .00001582  00000+0  22712-3 0  9998","line2":"2 64513  51.9002  73.5098 0002485 125.1256 234.9940 14.81718311 69293","mean_motion":14.81718311,"eccentricity":0.0002485,"inclination_deg":51.9002,"raan_deg":73.5098,"arg_perigee_deg":125.1256,"mean_anomaly_deg":234.994,"bstar":0.00022712,"rev_number":6929,"period_min":97.184464098858,"perigee_km":622.16549670572,"apogee_km":625.64551183034,"semimajor_km":7002.042504268,"source":"CELESTRAK","updated_at":"2026-09-22T09:00:29.809804Z"}}